This is the latest recevied weather packets stored in our database for station/object IZ1UQG-1. If no packets are shown the sender has not sent any weather packets the latest 1 day(s).
| Time | Temp. | Humidity | Pressure | Rain* | Wind** | Luminosity | Snow |
|---|---|---|---|---|---|---|---|
| 1778047134 | 13.33° C | 83% | 1008.6 hPa | 155.19 mm | - | - | - |
| 1778046834 | 13.33° C | 83% | 1008.6 hPa | 184.15 mm | - | - | - |
| 1778046534 | 13.33° C | 83% | 1008.6 hPa | 182.63 mm | - | - | - |
| 1778046234 | 13.33° C | 83% | 1008.6 hPa | 196.09 mm | - | - | - |
| 1778045934 | 13.33° C | 83% | 1008.7 hPa | 207.01 mm | - | - | - |
| 1778045634 | 13.33° C | 83% | 1008.9 hPa | 222 mm | - | - | - |
| 1778045334 | 13.33° C | 83% | 1008.8 hPa | 205.99 mm | - | - | - |
| 1778045034 | 13.33° C | 82% | 1008.7 hPa | 207.01 mm | - | - | - |
| 1778044734 | 13.33° C | 82% | 1009.1 hPa | 205.49 mm | - | - | - |
| 1778044434 | 13.33° C | 82% | 1009 hPa | 229.87 mm | - | - | - |
| 1778044134 | 13.33° C | 82% | 1009.1 hPa | 220.47 mm | - | - | - |
| 1778043834 | 13.33° C | 82% | 1009 hPa | 239.78 mm | - | - | - |
| 1778043534 | 13.33° C | 82% | 1009.1 hPa | 236.47 mm | - | - | - |
| 1778043234 | 13.33° C | 82% | 1009.1 hPa | 248.92 mm | - | - | - |
| 1778042934 | 13.33° C | 82% | 1009.2 hPa | 230.38 mm | - | - | - |
| 1778042634 | 13.33° C | 82% | 1009 hPa | 233.93 mm | - | - | - |
| 1778042334 | 13.33° C | 82% | 1009 hPa | 242.32 mm | - | - | - |
| 1778042034 | 13.33° C | 82% | 1009.1 hPa | 10.67 mm | - | - | - |
| 1778041734 | 13.33° C | 82% | 1009.2 hPa | 25.15 mm | - | - | - |
| 1778041434 | 13.33° C | 82% | 1009.2 hPa | 19.81 mm | - | - | - |
| 1778041134 | 13.33° C | 82% | 1009.4 hPa | 15.75 mm | - | - | - |
| 1778040834 | 13.33° C | 81% | 1009.3 hPa | 53.59 mm | - | - | - |
| 1778040534 | 13.33° C | 81% | 1009.4 hPa | 59.69 mm | - | - | - |
| 1778040234 | 13.33° C | 81% | 1009.4 hPa | 69.6 mm | - | - | - |
| 1778039934 | 13.33° C | 81% | 1009.4 hPa | 55.12 mm | - | - | - |
* Rain latest hour (hover to see other rain measurements)
** Current wind speed in m/s (hover to see current wind gust speed)